EW9904 Weather Reports


Display with metric or nautical units.
time (UTC)temp
F
wind
direction
speed
MPH
gust
MPH
rain 1hr
in
rain 24hr
in
rain mn
in
humidity
%
barometer
mb
20260504184503 75 5 3.0 13.0 0.00 0.00 0.00 37 1012.2
20260504183503 76 233 3.0 8.0 0.00 0.00 0.00 35 1012.3
20260504183005 75 186 3.0 11.0 0.00 0.00 0.00 34 1012.3
20260504182502 76 244 3.0 11.0 0.00 0.00 0.00 37 1012.4
20260504182004 76 335 3.0 9.0 0.00 0.00 0.00 41 1012.3
20260504181503 75 312 4.0 13.0 0.00 0.00 0.00 35 1012.5
20260504180504 75 336 3.0 8.0 0.00 0.00 0.00 34 1012.7
20260504175503 75 329 2.0 8.0 0.00 0.00 0.00 36 1012.6
20260504175005 75 331 3.0 11.0 0.00 0.00 0.00 37 1012.7
20260504174504 75 327 3.0 11.0 0.00 0.00 0.00 39 1012.8
20260504174005 75 281 3.0 11.0 0.00 0.00 0.00 38 1012.8
20260504173503 74 320 3.0 8.0 0.00 0.00 0.00 37 1012.8
20260504173004 74 235 3.0 8.0 0.00 0.00 0.00 40 1012.9
20260504172004 74 261 5.0 11.0 0.00 0.00 0.00 35 1013.1
20260504171504 74 261 3.0 11.0 0.00 0.00 0.00 39 1013.2
20260504171005 74 236 3.0 9.0 0.00 0.00 0.00 35 1013.1
20260504170502 74 292 4.0 15.0 0.00 0.00 0.00 35 1013.3
20260504150503 70 250 3.0 11.0 0.00 0.00 0.00 54 1014.3
20260504140503 66 321 4.0 10.0 0.00 0.00 0.00 55 1014.8
20260504130503 62 196 4.0 9.0 0.00 0.00 0.00 65 1015.5
20260504110502 52 209 2.0 9.0 0.00 0.00 0.00 78 1016.4
20260504100501 51 245 1.0 4.0 0.00 0.00 0.00 78 1016.1
20260504082002 50 187 2.0 5.0 0.00 0.00 0.00 76 1016.4
20260504080501 49 244 1.0 5.0 0.00 0.00 0.00 76 1016.5
20260504050500 47 246 1.0 5.0 0.00 0.00 0.00 65 1016.4
20260504050006 47 250 1.0 2.0 0.00 0.00 0.00 65 1016.4
20260504045005 47 250 1.0 4.0 0.00 0.00 0.00 66 1016.3
20260504044005 47 250 1.0 5.0 0.00 0.00 0.00 65 1016.3
20260504043505 47 250 1.0 5.0 0.00 0.00 0.00 65 1016.3
20260504043007 47 227 1.0 4.0 0.00 0.00 0.00 65 1016.4
20260504042504 47 228 1.0 4.0 0.00 0.00 0.00 66 1016.2
20260504041506 48 228 1.0 5.0 0.00 0.00 0.00 65 1016.1
20260504041006 48 228 1.0 5.0 0.00 0.00 0.00 64 1016.1
20260504040506 48 236 1.0 3.0 0.00 0.00 0.00 63 1016.0
20260504035505 48 236 1.0 5.0 0.00 0.00 0.00 64 1015.9
20260504035005 48 236 1.0 5.0 0.00 0.00 0.00 65 1015.9
20260504034505 48 202 1.0 4.0 0.00 0.00 0.00 64 1015.9
20260504034005 48 207 1.0 6.0 0.00 0.00 0.00 64 1015.8
20260504033506 48 205 1.0 6.0 0.00 0.00 0.00 63 1015.7
20260504033007 48 236 1.0 4.0 0.00 0.00 0.00 63 1015.7
20260504032507 48 236 1.0 2.0 0.00 0.00 0.00 63 1015.7
20260504031505 48 236 1.0 3.0 0.00 0.00 0.00 64 1015.7
20260504031006 48 236 1.0 3.0 0.00 0.00 0.00 64 1015.7
20260504030505 48 236 1.0 4.0 0.00 0.00 0.00 64 1015.7
20260504030006 47 236 1.0 4.0 0.00 0.00 0.00 65 1015.7
20260504025006 47 263 1.0 3.0 0.00 0.00 0.00 66 1015.7
20260504024504 46 265 1.0 3.0 0.00 0.00 0.00 66 1015.7
20260504024004 45 344 0.0 2.0 0.00 0.00 0.00 68 1015.7
20260504023005 45 344 0.0 1.0 0.00 0.00 0.00 69 1015.7
20260504022504 45 344 0.0 1.0 0.00 0.00 0.00 70 1015.7
20260504022006 45 344 0.0 2.0 0.00 0.00 0.00 69 1015.7
20260504021505 45 344 0.0 2.0 0.00 0.00 0.00 66 1015.7
20260504020008 45 344 0.0 2.0 0.00 0.00 0.00 67 1015.6
20260504015504 46 344 0.0 1.0 0.00 0.00 0.00 68 1015.5
20260504015006 46 344 0.0 1.0 0.00 0.00 0.00 65 1015.5
20260504014504 47 344 1.0 2.0 0.00 0.00 0.00 66 1015.5
20260504014005 47 344 0.0 2.0 0.00 0.00 0.00 64 1015.5
20260504013504 47 344 0.0 1.0 0.00 0.00 0.00 64 1015.4
20260504013006 47 344 1.0 2.0 0.00 0.00 0.00 64 1015.3
20260504012005 47 344 0.0 2.0 0.00 0.00 0.00 64 1015.3
20260504011005 48 344 0.0 1.0 0.00 0.00 0.00 64 1015.2
20260504010504 49 344 0.0 1.0 0.00 0.00 0.00 63 1015.2
20260504010006 49 344 0.0 1.0 0.00 0.00 0.00 61 1015.1
20260504005503 49 344 0.0 1.0 0.00 0.00 0.00 61 1015.1
20260504005004 50 344 1.0 2.0 0.00 0.00 0.00 60 1015.0
20260504004504 50 344 1.0 2.0 0.00 0.00 0.00 60 1015.0
20260504004004 50 344 0.0 1.0 0.00 0.00 0.00 57 1015.0
20260504003503 50 344 0.0 1.0 0.00 0.00 0.00 58 1014.8
20260504003005 50 344 0.0 1.0 0.00 0.00 0.00 58 1014.7
20260504002503 51 344 0.0 2.0 0.00 0.00 0.00 55 1014.6
20260504002004 51 344 0.0 3.0 0.00 0.00 0.00 55 1014.5
20260504001504 51 344 0.0 3.0 0.00 0.00 0.00 56 1014.5
20260504001004 52 344 0.0 2.0 0.00 0.00 0.00 52 1014.5
20260503235503 54 344 0.0 1.0 0.00 0.00 0.00 48 1014.4
20260503235004 55 344 0.0 1.0 0.00 0.00 0.00 47 1014.4
20260503234503 55 344 1.0 3.0 0.00 0.00 0.00 44 1014.4
20260503234005 56 346 1.0 6.0 0.00 0.00 0.00 45 1014.3
20260503233504 56 346 1.0 6.0 0.00 0.00 0.00 45 1014.4
20260503233006 57 351 2.0 6.0 0.00 0.00 0.00 43 1014.3
20260503232503 57 355 2.0 6.0 0.00 0.00 0.00 44 1014.3
20260503232004 57 349 2.0 5.0 0.00 0.00 0.00 43 1014.3
20260503231504 57 349 3.0 9.0 0.00 0.00 0.00 43 1014.2
20260503231004 58 265 3.0 12.0 0.00 0.00 0.00 42 1014.2
20260503230006 58 320 2.0 8.0 0.00 0.00 0.00 43 1014.1
20260503225503 58 338 3.0 8.0 0.00 0.00 0.00 40 1014.1
20260503225005 58 309 3.0 13.0 0.00 0.00 0.00 41 1014.0
20260503224503 58 346 4.0 13.0 0.00 0.00 0.00 40 1014.1
20260503224004 58 329 4.0 13.0 0.00 0.00 0.00 41 1014.0
20260503223504 58 312 4.0 15.0 0.00 0.00 0.00 40 1014.1
20260503223005 58 297 6.0 17.0 0.00 0.00 0.00 39 1014.0
20260503222004 59 286 7.0 15.0 0.00 0.00 0.00 38 1013.9
20260503221503 59 341 7.0 18.0 0.00 0.00 0.00 39 1014.1
20260503221004 59 336 7.0 18.0 0.00 0.00 0.00 39 1014.1
20260503220008 59 307 7.0 19.0 0.00 0.00 0.00 38 1014.2
20260503215004 59 219 4.0 17.0 0.00 0.00 0.00 38 1014.0
20260503214503 59 321 6.0 17.0 0.00 0.00 0.00 39 1014.0
20260503214004 59 205 7.0 17.0 0.00 0.00 0.00 39 1014.0
20260503213503 59 316 7.0 17.0 0.00 0.00 0.00 40 1014.0
20260503213005 60 17 6.0 16.0 0.00 0.00 0.00 40 1013.9
20260503212503 60 324 5.0 12.0 0.00 0.00 0.00 40 1013.9
20260503212003 60 329 5.0 14.0 0.00 0.00 0.00 38 1014.0
20260503211503 60 254 9.0 23.0 0.00 0.00 0.00 38 1013.8
20260503211004 60 348 12.0 23.0 0.00 0.00 0.00 37 1013.8
20260503210504 59 360 10.0 20.0 0.00 0.00 0.00 37 1013.9
20260503210006 59 360 10.0 20.0 0.00 0.00 0.00 36 1013.9
20260503205004 60 346 7.0 17.0 0.00 0.00 0.00 37 1013.9
20260503204503 60 247 7.0 21.0 0.00 0.00 0.00 38 1013.9
20260503204004 60 346 7.0 21.0 0.00 0.00 0.00 36 1013.8
20260503203504 60 327 6.0 20.0 0.00 0.00 0.00 36 1013.9
20260503203005 60 250 6.0 18.0 0.00 0.00 0.00 38 1013.9
20260503202503 60 282 8.0 22.0 0.00 0.00 0.00 34 1013.9
20260503202004 61 313 7.0 20.0 0.00 0.00 0.00 38 1013.9
20260503201505 60 293 6.0 16.0 0.00 0.00 0.00 37 1014.1
20260503201005 60 309 6.0 16.0 0.00 0.00 0.00 36 1014.0
20260503200006 60 260 6.0 15.0 0.00 0.00 0.00 39 1014.0
20260503195504 60 334 7.0 20.0 0.00 0.00 0.00 39 1014.1
20260503195006 61 279 6.0 20.0 0.00 0.00 0.00 39 1014.2
20260503194005 60 252 8.0 22.0 0.00 0.00 0.00 37 1014.2
20260503193005 60 355 7.0 19.0 0.00 0.00 0.00 39 1014.2
20260503192503 60 315 6.0 19.0 0.00 0.00 0.00 37 1014.2
20260503192005 60 355 6.0 18.0 0.00 0.00 0.00 39 1014.2
20260503191504 59 320 7.0 18.0 0.00 0.00 0.00 41 1014.3
20260503185502 59 334 9.0 20.0 0.00 0.00 0.00 41 1014.5